Phoenix, AZ

11:53 AM MST on April 27, 2017 (GMT -0700)
Phoenix Sky Harbor International

Weather History for KPHX - January, 2013

Change the Weather History Date:

Saturday, January 5, 2013

  Actual Average Record
Temperature  
Mean Temperature 50 °F 55 °F  
Max Temperature 63 °F 66 °F 80 °F (1927)
Min Temperature 37 °F 45 °F 23 °F (1950)
Degree Days  
Heating Degree Days 15 10  
Month to date heating degree days 75 50  
Since 1 July heating degree days 356 451  
Cooling Degree Days 0 0  
Month to date cooling degree days 0 0  
Year to date cooling degree days 0 0  
Moisture  
Dew Point 23 °F    
Average Humidity 39    
Maximum Humidity 59    
Minimum Humidity 19    
Precipitation  
Precipitation 0.00 in 0.03 in 0.31 in (1984)
Month to date precipitation 0.00 0.15  
Year to date precipitation 0.00 0.15  
Snow  
Snow 0.00 in - - ()
Month to date snowfall 0.0  
Year to date snowfall 0.0  
Since 1 July snowfall 0.0  
Snow Depth 0.00 in    
Sea Level Pressure  
Sea Level Pressure 30.24 in    
Wind  
Wind Speed 3 mph (ESE)    
Max Wind Speed 14 mph    
Max Gust Speed 17 mph    
Visibility 10 miles    
Events      
T = Trace of Precipitation, MM = Missing Value Source: NWS Daily Summary

Daily Weather History Graph

Daily Weather History Graph

Search for Another Location

Airport or City:

Trip Planner

Search our weather history database for the weather conditions in past years. The results will help you decide how hot, cold, wet, or windy it might be!

Date:

Astronomy

Jan. 05, 2013 Rise Set
Actual Time 7:32 AM MST 5:34 PM MST
Civil Twilight 7:05 AM MST 6:02 PM MST
Nautical Twilight 6:34 AM MST 6:32 PM MST
Astronomical Twilight 6:04 AM MST 7:03 PM MST
Moon 12:53 AM MST (1/5) 12:18 PM MST (1/5)
Length of Visible Light 10h 56m
Length of Day
10h 02m
Last Quarter, 43% of the Moon is Illuminated
Jan 5
Last Quarter
Jan 11
New
Jan 18
First Quarter
Jan 26
Full
Feb 3
Last Quarter

Hourly Weather History & Observations

Time (MST) Temp. Windchill Dew Point Humidity Pressure Visibility Wind Dir Wind Speed Gust Speed Precip Events Conditions
12:51 AM 44.1 °F - 25.0 °F 47% 30.25 in 10.0 mi Calm Calm - N/A   Clear
1:51 AM 42.8 °F 41.1 °F 24.8 °F 49% 30.26 in 10.0 mi SE 3.5 mph - N/A   Clear
2:51 AM 42.8 °F - 24.8 °F 49% 30.27 in 10.0 mi Calm Calm - N/A   Clear
3:51 AM 41.0 °F - 25.0 °F 53% 30.27 in 10.0 mi Calm Calm - N/A   Clear
4:51 AM 41.0 °F - 24.8 °F 53% 30.28 in 10.0 mi Calm Calm - N/A   Clear
5:51 AM 41.0 °F 39.0 °F 24.1 °F 51% 30.28 in 10.0 mi Variable 3.5 mph - N/A   Clear
6:51 AM 37.4 °F - 24.8 °F 60% 30.30 in 10.0 mi Calm Calm - N/A   Clear
7:51 AM 39.2 °F 35.9 °F 24.8 °F 56% 30.31 in 10.0 mi SE 4.6 mph - N/A   Partly Cloudy
8:51 AM 45.0 °F 42.6 °F 21.9 °F 40% 30.32 in 10.0 mi East 4.6 mph - N/A   Partly Cloudy
9:51 AM 51.1 °F - 23.0 °F 33% 30.33 in 10.0 mi East 10.4 mph - N/A   Partly Cloudy
10:51 AM 54.0 °F - 23.0 °F 30% 30.32 in 10.0 mi East 12.7 mph - N/A   Partly Cloudy
11:51 AM 55.9 °F - 23.0 °F 28% 30.29 in 10.0 mi ESE 8.1 mph - N/A   Partly Cloudy
12:51 PM 59.0 °F - 23.0 °F 25% 30.25 in 10.0 mi SE 6.9 mph - N/A   Clear
1:51 PM 61.0 °F - 21.9 °F 22% 30.22 in 10.0 mi ENE 3.5 mph - N/A   Clear
2:51 PM 61.0 °F - 19.9 °F 21% 30.20 in 10.0 mi Calm Calm - N/A   Clear
3:51 PM 62.6 °F - 19.4 °F 19% 30.21 in 10.0 mi Calm Calm - N/A   Clear
4:51 PM 61.0 °F - 18.0 °F 19% 30.19 in 10.0 mi WSW 3.5 mph - N/A   Clear
5:51 PM 57.9 °F - 21.0 °F 24% 30.19 in 10.0 mi WSW 3.5 mph - N/A   Clear
6:51 PM 55.9 °F - 21.0 °F 26% 30.19 in 10.0 mi Calm Calm - N/A   Clear
7:51 PM 54.0 °F - 23.0 °F 30% 30.19 in 10.0 mi Calm Calm - N/A   Clear
8:51 PM 50.0 °F - 26.1 °F 39% 30.18 in 10.0 mi Calm Calm - N/A   Clear
9:51 PM 48.9 °F - 25.0 °F 39% 30.19 in 10.0 mi East 3.5 mph - N/A   Clear
10:51 PM 46.0 °F 44.8 °F 27.0 °F 47% 30.19 in 10.0 mi South 3.5 mph - N/A   Clear
11:51 PM 46.0 °F - 26.1 °F 46% 30.18 in 10.0 mi Calm Calm - N/A   Clear